Overview Statistics Trail Chart Weather Telemetry Raw packets
 

This is the latest recevied weather packets stored in our database for station/object SV9FBP-13. If no packets are shown the sender has not sent any weather packets the latest 10 day(s).

<< 20 21 22 23 24 25 26 >>
Time Temp. Humidity Pressure Rain* Wind** Luminosity Snow
1788180439 33.89° C 23% 1008.7 hPa 0 mm - - -
1788179537 34.44° C 21% 1008.9 hPa 0 mm - - -
1788178637 33.89° C 26% 1009.2 hPa 0 mm - - -
1788177734 33.33° C 30% 1009.1 hPa 0 mm - - -
1788176833 33.33° C 30% 1009.1 hPa 0 mm - - -
1788175928 33.33° C 29% 1009.4 hPa 0 mm - - -
1788175027 32.78° C 30% 1009.7 hPa 0 mm - - -
1788174124 32.78° C 29% 1009.4 hPa 0 mm - - -
1788173222 33.33° C 27% 1009.5 hPa 0 mm - - -
1788172320 32.78° C 27% 1009.5 hPa 0 mm - - -
1788171418 32.78° C 25% 1009.6 hPa 0 mm - - -
1788170516 32.78° C 26% 1009.9 hPa 0 mm - - -
1788169614 33.33° C 27% 1009.9 hPa 0 mm - - -
1788168712 33.33° C 23% 1010.1 hPa 0 mm - - -
1788167810 32.78° C 28% 1010.1 hPa 0 mm - - -
1788166908 32.78° C 30% 1010 hPa 0 mm - - -
1788166005 32.22° C 34% 1010.4 hPa 0 mm - - -
1788165103 32.22° C 34% 1010.5 hPa 0 mm - - -
1788164201 32.22° C 36% 1010.4 hPa 0 mm - - -
1788163298 31.67° C 36% 1010.3 hPa 0 mm - - -
1788162397 31.67° C 36% 1010.3 hPa 0 mm - - -
1788161495 31.67° C 35% 1010.2 hPa 0 mm - - -
1788160592 31.11° C 36% 1010.2 hPa 0 mm - - -
1788159690 30.56° C 41% 1009.9 hPa 0 mm - - -
1788158789 30.56° C 42% 1010 hPa 0 mm - - -

* Rain latest hour (hover to see other rain measurements)
** Current wind speed in m/s (hover to see current wind gust speed)